Regional Weather Roundup
Issued by NWS

Home | Current Version | Previous Version | Text Only | Print | Product List | Glossary On
Versions: 1 2 3 4 5 6 7 8 9 10 11 12 13 14 15 16 17 18 19 20 21 22 23 24 25 26 27 28 29 30 31 32 33 34 35 36 37 38 39 40 41 42 43 44 45 46 47 48 49 50
000
ASUS43 KOAX 292002
RWRNE

WEATHER ROUNDUP FOR NEBRASKA
NATIONAL WEATHER SERVICE OMAHA NE
300 PM CDT MON AUG 29 2016

NOTES: SATELLITE DATA IS BEING USED TO AUGMENT CLOUD COVER ABOVE
       12000 FEET.
       "FAIR" INDICATES FEW OR NO CLOUDS BELOW 12,000 FEET WITH NO
       SIGNIFICANT WEATHER AND/OR OBSTRUCTIONS TO VISIBILITY.

  * THESE STATIONS DO NOT REPORT WEATHER SUCH AS RAIN...SNOW OR FOG.

NEZ001>004-019>022-054>056-292100-
NEBRASKA PANHANDLE

CITY           SKY/WX    TMP DP  RH WIND       PRES   REMARKS
SCOTTSBLUFF    SUNNY     87  54  32 E10       30.24S
ALLIANCE       CLOUDY    85  54  34 NE8G17    30.24S
CHADRON        SUNNY     83  53  35 NE10      30.23F
SIDNEY         CLOUDY    83  52  34 NE10G20   30.27S
$$

NEZ057>060-069>072-079>082-292100-
SOUTHWEST NEBRASKA

CITY           SKY/WX    TMP DP  RH WIND       PRES   REMARKS
NORTH PLATTE   CLOUDY    81  64  56 E6        30.22F
IMPERIAL       CLOUDY    79  60  52 S10       30.24S
LEXINGTON      CLOUDY    78  65  66 S8        30.22F
MCCOOK         PTSUNNY   76  65  68 S7        30.23R
$$

NEZ005>010-023>029-035>040-094-292100-
NORTH CENTRAL NEBRASKA

CITY           SKY/WX    TMP DP  RH WIND       PRES   REMARKS
VALENTINE      MOSUNNY   88  55  32 S8        30.18S
AINSWORTH      PTSUNNY   84  65  51 S13       30.19S
BROKEN BOW     PTSUNNY   81  65  58 SE9       30.21F
O`NEILL        CLOUDY    82  64  53 S12       30.20F
ORD            PTSUNNY   80  64  58 S8        30.19F
THEDFORD       CLOUDY    80  61  53 SE12      30.23S
$$

NEZ041-046>049-061>064-073>077-083>087-292100-
SOUTH CENTRAL NEBRASKA

CITY           SKY/WX    TMP DP  RH WIND       PRES   REMARKS
GRAND ISLAND   MOSUNNY   82  66  58 SE7       30.20F
AURORA         CLOUDY    84  66  55 SW3       30.18F
HASTINGS       CLOUDY    81  69  67 SW5       30.20F
HEBRON         TSTM      81  70  70 SW9G18    30.17S
HOLDREGE       CLOUDY    75  66  72 S5        30.22F
KEARNEY *      PTSUNNY   77  66  69 W3        30.21F
YORK           PTSUNNY   84  70  61 CALM      30.16F
$$

NEZ011>018-030>034-042>045-292100-
NORTHEAST NEBRASKA

CITY           SKY/WX    TMP DP  RH WIND       PRES   REMARKS
NORFOLK        CLOUDY    80  66  62 S3        30.18F
ALBION         CLOUDY    80  66  63 S5        30.20F
BLAIR          SUNNY     84  73  67 CALM      30.17F HX  90
FREMONT        CLOUDY    85  71  63 S3        30.17F HX  90
TEKAMAH        MOSUNNY   85  73  67 E5        30.16F HX  91
WAYNE          CLOUDY    79  73  81 S8        30.19F
$$

NEZ050>053-065>068-078-088>093-292100-
SOUTHEAST NEBRASKA

CITY           SKY/WX    TMP DP  RH WIND       PRES   REMARKS
LINCOLN        PTSUNNY   87  71  58 E3        30.15F HX  93
OMAHA EPPLEY   PTSUNNY   86  71  60 CALM      30.14F HX  91
BEATRICE       MOSUNNY   87  69  54 SE6       30.13F HX  91
FALLS CITY     MOSUNNY   90  70  51 SE7       30.13F HX  95
NEBRASKA CITY  SUNNY     85  70  60 SE6       30.15F HX  90
PLATTSMOUTH    SUNNY     87  70  56 SE3       30.15F HX  91
$$

NEZ044-045-051>053-067-292100-
OMAHA AREA

CITY           SKY/WX    TMP DP  RH WIND       PRES   REMARKS
OMAHA EPPLEY   PTSUNNY   86  71  60 CALM      30.14F HX  91
BLAIR          SUNNY     84  73  67 CALM      30.17F HX  90
FREMONT        CLOUDY    85  71  63 S3        30.17F HX  90
MILLARD        MOSUNNY   86  73  65 E5        30.14F HX  93
OFFUTT AFB     MOSUNNY   88  74  63 S6        30.13F HX  96
PLATTSMOUTH    SUNNY     87  70  56 SE3       30.15F HX  91
WAHOO          FAIR      83  72  68 CALM      30.16F
$$




USA.gov is the U.S. government's official web portal to all federal, state and local government web resources and services.